TimeEDT,TemperatureF,Dew PointF,Humidity,Sea Level PressureIn,VisibilityMPH,Wind Direction,Wind SpeedMPH,Gust SpeedMPH,PrecipitationIn,Events,Conditions,WindDirDegrees,DateUTC
12:56 AM,73.0,68.0,84,29.76,8.0,WSW,10.4,-,N/A,,Overcast,250,2013-06-26 04:56:00
1:56 AM,73.0,68.0,84,29.75,8.0,West,5.8,-,N/A,,Clear,260,2013-06-26 05:56:00
2:56 AM,72.0,68.0,87,29.73,8.0,WSW,5.8,-,N/A,,Clear,250,2013-06-26 06:56:00
3:56 AM,73.0,68.0,84,29.73,9.0,WSW,5.8,-,N/A,,Clear,250,2013-06-26 07:56:00
4:56 AM,72.0,66.9,84,29.75,9.0,SW,5.8,-,N/A,,Clear,230,2013-06-26 08:56:00
5:56 AM,72.0,68.0,87,29.76,6.0,West,5.8,-,N/A,,Clear,260,2013-06-26 09:56:00
6:56 AM,75.9,68.0,76,29.75,8.0,WSW,6.9,-,N/A,,Clear,250,2013-06-26 10:56:00
7:56 AM,78.1,69.1,74,29.76,9.0,WNW,4.6,-,N/A,,Scattered Clouds,290,2013-06-26 11:56:00
8:56 AM,80.1,69.1,69,29.77,10.0,WSW,5.8,-,N/A,,Partly Cloudy,250,2013-06-26 12:56:00
9:56 AM,82.9,68.0,60,29.76,10.0,West,8.1,-,N/A,,Clear,260,2013-06-26 13:56:00
10:56 AM,84.0,71.1,65,29.76,10.0,SSW,9.2,-,N/A,,Clear,210,2013-06-26 14:56:00
11:56 AM,86.0,71.1,61,29.76,10.0,WSW,8.1,16.1,N/A,,Clear,240,2013-06-26 15:56:00
12:56 PM,84.9,70.0,61,29.76,10.0,SW,11.5,-,N/A,,Mostly Cloudy,220,2013-06-26 16:56:00
1:56 PM,84.0,70.0,63,29.75,10.0,SW,15.0,21.9,N/A,,Partly Cloudy,220,2013-06-26 17:56:00
2:56 PM,84.9,70.0,61,29.75,10.0,SW,17.3,25.3,N/A,,Clear,230,2013-06-26 18:56:00
3:56 PM,84.0,69.1,61,29.75,10.0,SW,13.8,-,N/A,,Clear,230,2013-06-26 19:56:00
4:56 PM,82.9,68.0,60,29.75,10.0,West,11.5,-,N/A,,Partly Cloudy,270,2013-06-26 20:56:00
5:56 PM,81.0,69.1,67,29.75,10.0,West,9.2,-,N/A,,Partly Cloudy,260,2013-06-26 21:56:00
6:56 PM,78.1,70.0,76,29.77,10.0,NW,5.8,-,N/A,,Clear,310,2013-06-26 22:56:00
7:56 PM,73.0,68.0,84,29.81,8.0,North,9.2,-,N/A,,Scattered Clouds,10,2013-06-26 23:56:00
8:56 PM,72.0,69.1,91,29.81,6.0,West,3.5,-,0.00,Rain,Light Rain,260,2013-06-27 00:56:00
9:56 PM,72.0,69.1,91,29.83,7.0,Calm,Calm,-,0.00,,Scattered Clouds,0,2013-06-27 01:56:00
10:56 PM,71.1,68.0,90,29.83,5.0,NNE,3.5,-,N/A,,Partly Cloudy,20,2013-06-27 02:56:00
11:11 PM,71.6,69.8,94,29.83,4.0,Calm,Calm,-,N/A,,Mostly Cloudy,0,2013-06-27 03:11:00
11:56 PM,72.0,69.1,91,29.84,6.0,Calm,Calm,-,N/A,,Overcast,0,2013-06-27 03:56:00